Weather reports worldwide

Advertisment
Norderney, Germany (10113): temperature & dewpoint: 13.08.2019 00:00:00 - 19.08.2019 00:00:00 (CEST)Norderney, Germany (10113): temperature 5cm & temperature -5cm: 13.08.2019 00:00:00 - 19.08.2019 00:00:00 (CEST)Norderney, Germany (10113): temperature -20cm & temperature -100cm: 13.08.2019 00:00:00 - 19.08.2019 00:00:00 (CEST)Norderney, Germany (10113): wind speed & gusts: 13.08.2019 00:00:00 - 19.08.2019 00:00:00 (CEST)Norderney, Germany (10113): wind direction: 13.08.2019 00:00:00 - 19.08.2019 00:00:00 (CEST)Norderney, Germany (10113): reduced air pressure: 13.08.2019 00:00:00 - 19.08.2019 00:00:00 (CEST)Norderney, Germany (10113): visibility: 13.08.2019 00:00:00 - 19.08.2019 00:00:00 (CEST)Norderney, Germany (10113): sunshine duration: 13.08.2019 00:00:00 - 19.08.2019 00:00:00 (CEST)Norderney, Germany (10113): precipitation: 13.08.2019 00:00:00 - 19.08.2019 00:00:00 (CEST)
Date & Time tt [°C] td [°C] tt 5cm [°C] tt -5cm [°C] tt -20cm [°C] tt -100cm [°C] ff [km/h] ff [kn] fx [km/h] fx [kn] dd ppp [hPa] vv [km] sd [min] rr [mm]
19.08.2019 00:00:00 17,5 13,6 16,6 15,4 17,4 18,2 20 11 32 17 SW 1007,7 46 0 0,0
18.08.2019 23:00:00 17,4 13,7 15,9 15,6 17,6 18,2 16 9 30 16 SW 1007,4 40 0 0,0
18.08.2019 22:00:00 17,4 13,7 15,9 16,1 17,9 18,2 17 9 31 17 SW 1007,2 45 0 0,0
18.08.2019 21:00:00 17,8 13,2 16,4 16,7 18,1 18,2 18 10 34 18 WSW 1006,3 47 38 0,0
18.08.2019 20:00:00 18,4 13,5 17,2 18,0 18,1 18,2 21 11 37 20 WSW 1005,7 40 48 0,0
18.08.2019 19:00:00 18,3 13,8 17,2 19,1 18,0 18,2 17 9 36 19 SW 1005,3 40 46 0,0
18.08.2019 18:00:00 17,1 15,0 16,4 18,4 17,9 18,2 14 8 41 22 WSW 1005,2 30 10 1,2
18.08.2019 17:00:00 16,4 14,4 16,4 17,8 17,9 18,3 21 11 42 23 W 1005,0 32 0 0,2
18.08.2019 16:00:00 17,6 14,2 16,2 18,2 17,8 18,3 18 10 34 19 SW 1004,5 34 0 0,1
18.08.2019 15:00:00 17,5 15,0 17,3 18,1 17,7 18,3 19 10 34 18 SSW 1003,8 24 0 0,2
18.08.2019 14:00:00 17,2 14,9 17,4 18,3 17,5 18,3 18 10 35 19 S 1003,7 20 0 0,0
18.08.2019 13:00:00 16,8 14,8 16,8 17,4 17,5 18,3 21 12 38 21 S 1003,6 17 0 0,0
18.08.2019 12:00:00 16,7 14,8 16,7 17,3 17,4 18,3 20 11 40 21 S 1003,8 19 0 0,1
18.08.2019 11:00:00 16,6 15,0 17,0 17,0 17,4 18,3 23 13 37 20 S 1003,6 12 0 0,0
18.08.2019 10:00:00 16,1 15,0 16,1 16,7 17,4 18,3 22 12 32 18 S 1003,4 11 0 0,0
18.08.2019 09:00:00 15,9 14,9 15,5 16,3 17,4 18,3 16 9 29 16 S 1004,1 14 0 0,0
18.08.2019 08:00:00 15,8 14,7 15,5 16,1 17,5 18,3 14 7 27 15 S 1004,2 18 0 0,0
18.08.2019 07:00:00 15,9 14,8 15,6 16,1 17,6 18,3 16 9 26 14 S 1004,4 18 0 0,0
18.08.2019 06:00:00 16,0 15,1 15,6 16,2 17,7 18,3 16 9 27 15 S 1004,7 15 0 0,0
18.08.2019 05:00:00 15,9 15,3 15,4 16,4 17,9 18,3 13 7 23 12 S 1004,6 12 0 0,0
18.08.2019 04:00:00 16,8 15,7 16,0 16,4 18,0 18,3 12 6 25 13 S 1005,1 18 0 0,0
18.08.2019 03:00:00 17,5 15,4 16,5 16,4 18,2 18,3 15 8 27 15 SSW 1005,5 25 0 0,0
18.08.2019 02:00:00 17,5 15,1 16,4 16,5 18,4 18,3 16 9 26 14 SW 1005,6 29 0 0,0
18.08.2019 01:00:00 17,7 15,4 16,3 16,6 18,6 18,3 13 7 25 14 SW 1005,8 30 0 0,0
18.08.2019 00:00:00 17,7 15,0 15,9 16,8 18,9 18,3 13 7 21 11 SW 1005,7 35 0 0,0
17.08.2019 23:00:00 17,9 15,7 15,7 17,2 19,2 18,3 8 4 14 8 SW 1005,5 30 0 0,0
17.08.2019 22:00:00 17,5 16,3 15,9 18,0 19,5 18,3 6 3 11 6 S 1005,5 23 0 0,0
17.08.2019 21:00:00 17,8 15,9 16,7 18,9 19,7 18,3 4 2 18 10 WSW 1004,9 24 0 4,1
17.08.2019 20:00:00 18,4 15,9 17,1 19,6 19,9 18,3 9 5 13 7 SSW 1005,0 16 0 3,1
17.08.2019 19:00:00 19,3 15,4 19,4 20,6 20,0 18,3 10 5 21 11 W 1005,1 40 2 0,0
17.08.2019 18:00:00 19,6 15,2 19,7 21,3 19,9 18,3 12 7 27 15 WSW 1005,3 38 8 0,0
17.08.2019 17:00:00 19,7 14,8 20,3 22,8 19,6 18,3 21 11 35 19 W 1005,0 28 43 0,0
17.08.2019 16:00:00 20,5 16,8 21,7 23,6 19,2 18,3 15 8 40 22 WSW 1004,9 34 43 1,1
17.08.2019 15:00:00 19,7 17,0 19,0 22,3 18,8 18,3 23 12 41 22 SSW 1004,9 22 20 0,0
17.08.2019 14:00:00 19,2 16,9 20,6 21,6 18,3 18,2 24 13 40 22 SSW 1004,8 29 19 0,0
17.08.2019 13:00:00 18,9 16,6 19,9 20,4 18,0 18,2 27 15 41 22 SSW 1004,8 45 14 0,0
17.08.2019 12:00:00 17,7 16,6 17,4 18,1 17,9 18,2 21 12 44 24 SSW 1004,6 2,9 0 0,0
17.08.2019 11:00:00 17,4 15,9 17,1 17,7 17,9 18,2 26 14 45 24 S 1004,5 34 0 0,0
17.08.2019 10:00:00 17,2 15,5 16,8 17,3 17,9 18,2 25 13 48 26 S 1004,5 40 0 0,0
17.08.2019 09:00:00 17,1 14,9 16,1 16,9 18,0 18,2 27 15 45 24 S 1004,4 41 0 0,0
17.08.2019 08:00:00 16,2 14,9 15,4 16,6 18,1 18,2 27 14 47 26 S 1004,5 12 0 0,3
17.08.2019 07:00:00 15,9 15,2 15,4 16,5 18,3 18,2 27 14 45 24 S 1004,6 11 0 2,4
17.08.2019 06:00:00 16,3 14,8 15,4 16,6 18,5 18,2 24 13 41 22 S 1005,1 7 0 0,2
17.08.2019 05:00:00 16,1 14,8 15,3 16,8 18,7 18,2 26 14 44 24 S 1005,4 15 0 1,1
17.08.2019 04:00:00 16,5 14,7 15,4 16,9 19,0 18,2 27 15 46 25 S 1006,3 16 0 1,0
17.08.2019 03:00:00 16,5 14,5 15,4 17,2 19,3 18,2 23 12 42 23 S 1007,0 19 0 0,6
17.08.2019 02:00:00 16,8 14,2 15,4 17,6 19,6 18,2 22 12 35 19 S 1007,9 20 0 0,4
17.08.2019 01:00:00 17,3 14,1 15,7 18,2 19,9 18,2 21 11 32 18 S 1008,7 25 0 0,4
17.08.2019 00:00:00 18,0 14,0 16,6 19,0 20,2 18,2 19 11 35 19 S 1009,5 21 0 0,0
16.08.2019 23:00:00 18,5 13,8 17,9 19,4 20,5 18,2 18 10 30 16 S 1010,2 28 0 0,0
16.08.2019 22:00:00 19,0 13,7 18,5 20,3 20,8 18,2 14 7 23 12 S 1010,7 31 0 0,0
16.08.2019 21:00:00 19,2 15,2 18,9 21,3 21,1 18,2 11 6 26 14 S 1011,3 23 0 0,0
16.08.2019 20:00:00 19,8 14,1 19,5 22,6 21,3 18,2 15 8 25 13 SSW 1011,5 32 0 0,0
16.08.2019 19:00:00 20,5 12,8 20,9 24,3 21,2 18,2 15 8 27 15 SSW 1011,9 41 24 0,0
16.08.2019 18:00:00 20,9 12,9 22,2 25,5 21,0 18,2 13 7 26 14 SW 1012,2 44 28 0,0
16.08.2019 17:00:00 20,2 12,6 23,9 26,8 20,5 18,2 11 6 20 11 SW 1013,0 52 41 0,0
16.08.2019 16:00:00 20,5 12,5 24,7 26,6 19,8 18,2 15 8 26 14 SW 1013,5 66 31 0,0
16.08.2019 15:00:00 19,6 11,9 22,7 25,9 19,1 18,2 16 8 29 16 SW 1014,2 45 35 0,0
16.08.2019 14:00:00 20,2 12,0 24,8 24,6 18,5 18,2 13 7 24 13 SW 1014,4 46 60 0,0
16.08.2019 13:00:00 19,1 13,0 22,9 22,4 17,9 18,2 13 7 24 13 SSW 1014,7 38 42 0,0
16.08.2019 12:00:00 19,2 13,0 22,8 21,3 17,4 18,3 16 9 25 14 SW 1015,0 42 50 0,0
16.08.2019 11:00:00 17,8 11,9 18,8 18,9 17,0 18,3 8 5 18 10 W 1015,1 20 16 0,0
16.08.2019 10:00:00 18,3 12,1 21,3 18,5 16,8 18,3 14 8 23 12 W 1015,1 20 59 0,0
16.08.2019 09:00:00 17,3 11,7 18,1 16,1 16,7 18,3 20 11 27 15 WNW 1015,0 21 15 0,0
16.08.2019 08:00:00 17,0 11,5 16,6 15,3 16,8 18,3 21 12 31 17 WNW 1014,7 33 6 0,0
16.08.2019 07:00:00 16,9 11,9 15,5 14,9 17,0 18,3 18 10 30 16 WNW 1014,3 31 0 0,0
16.08.2019 06:00:00 16,9 12,4 15,0 15,2 17,2 18,3 25 13 35 19 NW 1013,8 29 0 0,0
16.08.2019 05:00:00 16,8 12,2 14,4 15,7 17,4 18,3 33 18 42 23 NW 1013,2 28 0 0,2
16.08.2019 04:00:00 15,9 14,6 15,2 16,2 17,5 18,3 27 15 34 18 NW 1013,0 4,8 0 1,0
16.08.2019 03:00:00 16,8 14,3 15,7 16,4 17,6 18,3 29 16 49 26 NW 1012,6 20 0 0,1
16.08.2019 02:00:00 17,8 14,8 17,3 16,6 17,7 18,3 34 18 44 24 W 1012,3 20 0 0,0
16.08.2019 01:00:00 17,6 14,5 17,1 16,6 17,9 18,3 36 19 50 27 W 1012,1 15 0 0,0
16.08.2019 00:00:00 17,8 14,2 17,3 16,8 18,0 18,4 37 20 51 28 W 1011,7 20 0 0,0
15.08.2019 23:00:00 17,1 15,1 16,2 17,1 18,2 18,4 37 20 52 28 W 1011,2 12 0 0,1
15.08.2019 22:00:00 17,8 14,7 16,8 17,3 18,4 18,4 28 15 44 24 W 1010,6 20 0 0,0
15.08.2019 21:00:00 17,9 14,2 17,4 17,8 18,6 18,4 28 15 41 22 W 1009,8 23 0 0,0
15.08.2019 20:00:00 18,1 14,3 18,0 18,6 18,7 18,4 28 15 42 23 W 1009,2 26 4 0,0
15.08.2019 19:00:00 18,2 14,8 18,3 19,3 18,7 18,4 27 14 42 23 W 1008,7 33 3 0,0
15.08.2019 18:00:00 18,2 15,0 18,3 20,4 18,6 18,4 23 13 44 24 WSW 1008,2 31 23 0,1
15.08.2019 17:00:00 19,1 14,7 20,4 21,5 18,3 18,5 31 17 44 24 W 1007,6 27 53 0,0
15.08.2019 16:00:00 19,1 14,8 20,1 21,7 17,9 18,5 31 17 47 25 W 1007,0 25 55 0,0
15.08.2019 15:00:00 19,0 15,3 19,8 20,7 17,5 18,5 31 17 46 25 W 1006,4 32 31 0,0
15.08.2019 14:00:00 18,4 15,8 17,8 18,9 17,2 18,5 25 14 41 22 W 1005,9 23 0 0,3
15.08.2019 13:00:00 18,2 16,8 17,9 19,8 16,9 18,5 20 11 41 22 SSW 1005,0 18 21 0,3
15.08.2019 12:00:00 17,2 16,6 17,0 17,3 16,7 18,6 22 12 39 21 SW 1004,8 7 0 1,3
15.08.2019 11:00:00 17,2 15,9 16,9 17,0 16,5 18,6 23 12 40 22 S 1004,7 20 0 0,0
15.08.2019 10:00:00 16,9 15,8 16,8 16,5 16,4 18,6 19 11 35 19 S 1004,9 16 0 0,0
15.08.2019 09:00:00 16,1 15,4 15,9 15,9 16,3 18,6 21 11 37 20 S 1005,2 12 0 0,0
15.08.2019 08:00:00 15,4 14,9 15,1 15,4 16,3 18,6 19 11 34 19 S 1005,5 11 0 0,8
15.08.2019 07:00:00 15,1 14,5 14,7 15,1 16,4 18,6 22 12 34 19 S 1005,8 4,8 0 0,1
15.08.2019 06:00:00 14,5 13,8 14,1 14,9 16,5 18,6 21 11 42 23 S 1006,3 11 0 0,0
15.08.2019 05:00:00 14,4 13,5 13,9 14,9 16,5 18,7 23 12 37 20 SSE 1007,1 15 0 0,1
15.08.2019 04:00:00 14,0 13,3 13,5 14,9 16,7 18,7 24 13 43 23 SSE 1008,2 3,9 0 0,3
15.08.2019 03:00:00 13,9 13,1 13,5 15,0 16,8 18,7 21 11 32 17 SSE 1009,3 25 0 0,9
15.08.2019 02:00:00 14,2 13,4 13,7 15,1 16,9 18,7 16 9 34 18 SSE 1010,6 6 0 1,1
15.08.2019 01:00:00 15,0 12,7 13,7 15,3 17,1 18,7 19 10 38 20 S 1011,5 26 0 0,3
15.08.2019 00:00:00 16,5 12,3 14,5 15,4 17,2 18,8 20 11 34 18 SSW 1012,0 29 0 0,2
14.08.2019 23:00:00 16,4 12,0 15,8 15,4 17,4 18,8 18 10 30 16 S 1012,5 40 0 0,0
14.08.2019 22:00:00 15,7 12,4 15,1 15,6 17,6 18,8 15 8 28 15 SE 1012,7 44 0 0,0
14.08.2019 21:00:00 15,7 11,8 15,1 16,0 17,8 18,8 14 7 23 12 SE 1013,0 47 0 0,0
14.08.2019 20:00:00 15,9 12,0 15,5 16,6 18,0 18,8 14 8 22 12 ESE 1013,8 51 0 0,0
14.08.2019 19:00:00 16,1 12,4 15,8 17,2 18,1 18,9 10 6 18 10 ESE 1014,2 50 0 0,0
14.08.2019 18:00:00 16,6 11,7 16,3 18,3 18,1 18,9 7 4 13 7 SE 1014,7 44 0 0,0
14.08.2019 17:00:00 17,1 11,7 17,9 18,4 18,2 18,9 11 6 19 10 W 1015,3 38 2 0,0
14.08.2019 16:00:00 16,5 11,3 16,1 18,2 18,2 18,9 11 6 28 15 W 1015,6 44 0 0,0
14.08.2019 15:00:00 17,1 9,9 17,1 20,2 18,0 19,0 16 9 40 21 WSW 1015,7 59 5 0,0
14.08.2019 14:00:00 18,7 10,7 23,0 23,2 17,2 19,0 16 8 27 15 SW 1015,7 34 58 0,0
14.08.2019 13:00:00 18,1 12,6 20,9 20,8 16,6 19,0 16 8 26 14 SSW 1015,8 37 39 0,0
14.08.2019 12:00:00 16,0 10,4 18,2 19,1 16,1 19,0 13 7 24 13 S 1016,2 52 58 0,0
14.08.2019 11:00:00 13,7 11,2 13,4 15,1 16,0 19,0 11 6 42 23 S 1016,3 36 0 1,5
14.08.2019 10:00:00 15,0 10,2 13,4 15,1 16,0 19,1 13 7 41 22 W 1016,9 22 5 1,0
14.08.2019 09:00:00 12,8 9,5 11,4 13,7 16,1 19,1 32 17 62 33 W 1016,9 7 0 5,1
14.08.2019 08:00:00 13,5 10,1 12,2 14,2 16,2 19,1 43 23 57 31 WNW 1016,2 7 21 0,1
14.08.2019 07:00:00 14,3 11,2 13,3 13,7 16,4 19,1 17 9 30 16 SW 1015,5 44 0 0,0
14.08.2019 06:00:00 15,8 9,1 14,4 13,6 16,6 19,1 21 11 36 20 W 1015,3 46 0 0,0
14.08.2019 05:00:00 15,7 9,3 14,4 13,8 16,7 19,1 28 15 39 21 W 1015,3 48 0 0,0
14.08.2019 04:00:00 15,6 9,7 14,0 14,0 16,9 19,1 26 14 37 20 W 1015,3 43 0 0,0
14.08.2019 03:00:00 15,8 10,4 14,7 14,0 17,1 19,1 25 14 35 19 W 1015,1 42 0 0,0
14.08.2019 02:00:00 14,9 11,1 13,7 14,2 17,4 19,2 15 8 27 14 SW 1015,2 53 0 0,0
14.08.2019 01:00:00 14,3 11,6 12,8 14,4 17,6 19,2 17 9 35 19 SW 1015,3 40 0 0,1
14.08.2019 00:00:00 14,2 11,7 12,9 14,8 17,9 19,2 22 12 35 19 WSW 1015,6 14 0 0,0
13.08.2019 23:00:00 14,6 11,1 13,5 14,7 18,3 19,2 19 11 35 19 SSW 1015,6 53 0 0,0
13.08.2019 22:00:00 14,7 10,5 13,1 15,1 18,6 19,2 17 9 29 16 SSW 1015,5 75 0 0,0
13.08.2019 21:00:00 14,4 10,3 13,2 16,1 19,0 19,2 17 9 32 17 SW 1015,4 55 0 0,2
13.08.2019 20:00:00 14,2 8,7 12,7 17,1 19,3 19,2 23 13 46 25 WSW 1015,7 56 0 0,2
13.08.2019 19:00:00 16,5 10,5 16,2 19,1 19,3 19,3 17 9 29 16 W 1015,3 35 24 0,0
13.08.2019 18:00:00 17,4 10,0 18,6 21,0 19,1 19,3 15 8 27 14 W 1015,2 55 57 0,0
13.08.2019 17:00:00 17,2 11,0 17,7 20,5 18,9 19,3 13 7 61 33 W 1015,4 62 38 1,5
13.08.2019 16:00:00 17,6 9,2 18,9 21,0 18,6 19,3 21 11 31 17 W 1015,2 58 39 0,0
13.08.2019 15:00:00 16,2 11,2 16,3 19,5 18,4 19,3 21 12 32 18 SW 1015,1 61 15 0,0
13.08.2019 14:00:00 15,3 11,4 15,3 20,0 18,1 19,3 12 7 20 11 S 1015,2 48 23 0,0
13.08.2019 13:00:00 15,4 11,5 17,5 18,3 17,8 19,3 10 6 35 19 SW 1015,0 75 26 3,2
13.08.2019 12:00:00 13,7 11,6 12,9 17,6 17,8 19,3 18 10 37 20 WSW 1015,1 6 10 0,2
13.08.2019 11:00:00 13,4 9,7 12,7 15,2 18,1 19,3 7 4 42 23 WNW 1014,6 31 0 3,2
13.08.2019 10:00:00 13,8 11,7 12,4 15,8 18,4 19,3 35 19 46 25 NNW 1014,3 4,4 0 6,8
13.08.2019 09:00:00 14,3 11,5 13,0 15,9 18,6 19,3 4 2 28 15 WNW 1013,3 23 0 1,9
13.08.2019 08:00:00 14,7 12,0 13,4 16,0 18,9 19,3 19 11 35 19 NW 1012,9 11 0 0,3
13.08.2019 07:00:00 14,3 12,6 13,4 16,2 19,1 19,3 27 14 40 21 NW 1012,6 14 0 1,5
13.08.2019 06:00:00 15,1 12,1 13,8 16,3 19,4 19,3 10 5 32 18 NNW 1012,3 28 0 0,0
13.08.2019 05:00:00 15,5 12,8 14,1 16,5 19,7 19,3 20 11 28 15 NW 1012,6 34 0 0,0
13.08.2019 04:00:00 15,0 11,7 13,0 16,8 20,1 19,3 13 7 25 13 W 1012,5 44 0 2,8
13.08.2019 03:00:00 14,1 12,3 13,2 17,4 20,6 19,3 4 2 31 17 SSE 1012,3 44 0 5,5
13.08.2019 02:00:00 15,4 13,7 14,3 18,1 21,0 19,3 16 9 26 14 SW 1012,7 13 0 0,5
13.08.2019 01:00:00 14,7 12,6 13,8 18,9 21,4 19,3 9 5 37 20 SSW 1013,2 37 0 5,6
13.08.2019 00:00:00 17,3 12,6 16,8 20,0 21,7 19,3 17 9 31 17 W 1012,8 22 0 0,0

tt = temperature
td = dewpoint
tt 5cm = temperature 5cm
tt -5cm = temperature -5cm
tt -20cm = temperature -20cm
tt -100cm = temperature -100cm
ff = wind speed
fx = gusts
dd = wind direction
ppp = reduced air pressure
vv = visibility
sd = sunshine duration
rr = precipitation

Next stations